Regional Weather Roundup
Issued by NWS Goodland, KS

Home | Current Version | Previous Version | Graphics & Text | Print | Product List | Glossary On
Versions: 1 2 3 4 5 6 7 8 9 10 11 12 13 14 15 16 17 18 19 20 21 22 23 24 25 26 27 28 29 30 31 32 33 34 35 36 37 38 39 40 41 42 43 44 45 46 47 48 49 50
584
ASUS43 KGLD 250808
RWRGLD

GOODLAND FORECAST AREA HOURLY WEATHER ROUNDUP
NATIONAL WEATHER SERVICE GOODLAND KS
200 AM MDT SUN SEP 25 2016

...OFFICIAL OBSERVATIONS...

CITY           SKY/WX    TMP DP  RH WIND       PRES   REMARKS
GOODLAND KS    CLEAR     48  41  76 NW12      30.25R
HILL CITY KS   CLEAR     56  46  69 NW13      30.13R
IMPERIAL NEB   CLEAR     52  40  63 NW14      30.23R
MCCOOK NEB     CLEAR     50  42  74 W8        30.18R
AKRON CO       CLEAR     43  36  76 NW13      30.30R
BURLINGTON CO  CLEAR     50  39  66 N9        30.28R
LIMON CO       CLOUDY    48  35  60 NW9       30.34R
$$

...UNOFFICIAL OBSERVATIONS...

CITY           SKY/WX    TMP DP  RH WIND       PRES   REMARKS
COLBY KS       CLEAR     52  45  76 NW8       30.23R
LENORA KS        N/A     54  32  43 MISG        N/A
NORTON KS      CLEAR     55  37  50 NW16G22   30.13S
SHARON SPRINGS   N/A     52  42  70 N12         N/A
KIT CARSON CO    N/A     51  39  64 MISG        N/A
$$




USA.gov is the U.S. government's official web portal to all federal, state and local government web resources and services.